Weather History for PAOM - July, 2014

Change the Weather History Date:

Sunday, July 27, 2014

  Actual Average Record
Temperature  
Mean Temperature 48 °F 52 °F  
Max Temperature 50 °F 58 °F 80 °F (1968)
Min Temperature 45 °F 46 °F 32 °F (2008)
Degree Days  
Heating Degree Days 17 13  
Month to date heating degree days 378 348  
Since 1 June heating degree days 946 864  
Since 1 July heating degree days 378 348  
Cooling Degree Days 0    
Month to date cooling degree days 2  
Year to date cooling degree days 2  
Since 1 June cooling degree days 2  
Moisture  
Dew Point 46 °F    
Average Humidity 0    
Maximum Humidity 0    
Minimum Humidity 0    
Precipitation  
Precipitation 0.11 in 0.09 in 1.19 in (1954)
Month to date precipitation 2.48 1.73  
Year to date precipitation 7.17 6.85  
Snow  
Snow 0.00 in 0.00 in 0.00 in (2014)
Month to date snowfall 0.0 0.0  
Since 1 June snowfall 0.0 0.3  
Since 1 July snowfall 0.0 0.0  
Snow Depth 0.00 in    
Sea Level Pressure  
Sea Level Pressure 30.01 in    
Wind  
Wind Speed 6 mph (SE)    
Max Wind Speed 15 mph    
Max Gust Speed 18 mph    
Visibility 5 miles    
Events Rain    
T = Trace of Precipitation, MM = Missing Value Source: NWS Daily Summary

Daily Weather History Graph

Daily Weather History Graph

Search for Another Location

Airport or City:

Trip Planner

Search our weather history database for the weather conditions in past years. The results will help you decide how hot, cold, wet, or windy it might be!

Date:

Astronomy

Jul. 27, 2014 Rise Set
Actual Time 5:49 AM AKDT 12:24 AM AKDT
Civil Twilight 3:46 AM AKDT 2:18 AM AKDT
Nautical Twilight Sun does not rise Sun does not rise
Astronomical Twilight Sun does not rise Sun does not rise
Moon 7:43 AM AKDT (7/27) 11:33 PM AKDT (7/27)
Length of Visible Light 22h 32m
Length of Day
18h 35m
New Moon, 1% of the Moon is Illuminated
Jul 27
New Moon
Aug 3
First Quarter
Aug 10
Full
Aug 17
Last Quarter
Aug 25
New

Hourly Weather History & Observations

Time (AKDT) Temp. Windchill Dew Point Humidity Pressure Visibility Wind Dir Wind Speed Gust Speed Precip Events Conditions
12:53 AM 48.9 °F - 44.1 °F 83% 30.05 in 10.0 mi NW 3.5 mph - 0.00 in   Overcast
1:53 AM 48.9 °F - 45.0 °F 86% 30.04 in 10.0 mi Calm Calm - N/A   Overcast
2:53 AM 48.0 °F - 43.0 °F 83% 30.04 in 10.0 mi East 4.6 mph - N/A   Overcast
3:53 AM 48.9 °F - 43.0 °F 80% 30.04 in 10.0 mi NW 3.5 mph - 0.00 in   Overcast
4:53 AM 48.0 °F - 43.0 °F 83% 30.03 in 6.0 mi Calm Calm - 0.00 in Rain Light Rain
5:53 AM 46.0 °F 44.8 °F 44.1 °F 93% 30.04 in 3.0 mi North 3.5 mph - 0.02 in Rain Light Rain
6:08 AM 46.0 °F 44.8 °F 44.1 °F 93% 30.04 in 4.0 mi Variable 3.5 mph - 0.00 in Rain Light Rain
6:53 AM 45.0 °F 40.6 °F 43.0 °F 93% 30.04 in 6.0 mi ENE 8.1 mph - 0.02 in Rain Light Rain
6:55 AM 45.0 °F 40.6 °F 43.0 °F 93% 30.04 in 6.0 mi ENE 8.1 mph - 0.00 in Rain Light Rain
7:33 AM 45.0 °F 40.6 °F 44.1 °F 97% 30.03 in 4.0 mi ENE 8.1 mph - 0.00 in Rain Light Rain
7:53 AM 45.0 °F 41.2 °F 44.1 °F 97% 30.03 in 3.0 mi East 6.9 mph - 0.01 in Rain Light Rain
8:05 AM 45.0 °F 41.2 °F 44.1 °F 97% 30.03 in 1.5 mi East 6.9 mph - 0.00 in Rain Rain
8:11 AM 45.0 °F 41.2 °F 44.1 °F 97% 30.03 in 2.0 mi ENE 6.9 mph - 0.02 in Rain Light Rain
8:32 AM 45.0 °F 41.2 °F 45.0 °F 100% 30.03 in 2.5 mi ENE 6.9 mph - 0.03 in Rain Light Rain
8:53 AM 46.0 °F 41.9 °F 45.0 °F 96% 30.03 in 5.0 mi East 8.1 mph - 0.04 in Rain Light Rain
9:18 AM 46.0 °F 40.6 °F 45.0 °F 96% 30.03 in 2.5 mi East 11.5 mph - 0.00 in   Overcast
9:35 AM 46.0 °F 40.6 °F 46.0 °F 100% 30.02 in 1.2 mi East 11.5 mph - 0.01 in   Overcast
9:53 AM 46.9 °F - 46.0 °F 97% 30.02 in 1.2 mi East 9.2 mph - 0.01 in   Overcast
10:13 AM 46.9 °F - 46.9 °F 100% 30.02 in 1.5 mi ESE 11.5 mph - N/A   Overcast
10:53 AM 46.9 °F - 46.9 °F 100% 30.02 in 1.0 mi ESE 11.5 mph - N/A   Overcast
11:13 AM 48.0 °F - 46.9 °F 96% 30.02 in 2.0 mi ESE 10.4 mph - 0.00 in Rain Light Rain
11:24 AM 48.0 °F - 46.9 °F 96% 30.02 in 3.0 mi ESE 11.5 mph - 0.00 in Rain Light Rain
11:48 AM 48.2 °F - 48.2 °F 100% 30.01 in 1.5 mi ESE 11.5 mph - 0.01 in   Overcast
11:53 AM 48.0 °F - 48.0 °F 100% 30.01 in 1.5 mi ESE 10.4 mph - 0.01 in   Overcast
12:53 PM 48.9 °F - 48.9 °F 100% 30.01 in 1.0 mi ESE 11.5 mph - 0.00 in   Overcast
1:27 PM 48.9 °F - 48.9 °F 100% 30.01 in 0.8 mi ESE 10.4 mph - N/A   Overcast
1:53 PM 48.9 °F - 48.9 °F 100% 30.01 in 1.0 mi ESE 13.8 mph - 0.00 in   Light Drizzle
2:53 PM 48.9 °F - 48.9 °F 100% 29.99 in 0.8 mi SSW 9.2 mph - 0.00 in   Light Drizzle
3:05 PM 48.0 °F - 48.0 °F 100% 29.99 in 1.2 mi SSW 9.2 mph - 0.00 in   Light Drizzle
3:15 PM 48.9 °F - 48.0 °F 97% 30.00 in 3.0 mi South 8.1 mph - 0.00 in   Light Drizzle
3:49 PM 48.2 °F - 48.2 °F 100% 29.99 in 6.0 mi SSW 6.9 mph - 0.00 in   Overcast
3:53 PM 48.0 °F - 46.9 °F 96% 29.99 in 6.0 mi South 6.9 mph - 0.00 in   Overcast
4:53 PM 48.0 °F - 48.0 °F 100% 29.98 in 6.0 mi SSW 9.2 mph - N/A   Overcast
5:53 PM 48.9 °F - 46.9 °F 93% 29.99 in 6.0 mi South 5.8 mph - N/A   Overcast
6:53 PM 48.9 °F - 46.9 °F 93% 29.98 in 10.0 mi SSE 5.8 mph - N/A   Overcast
7:28 PM 48.0 °F - 46.9 °F 96% 29.97 in 10.0 mi SSE 6.9 mph - N/A   Overcast
7:53 PM 48.0 °F - 46.9 °F 96% 29.98 in 10.0 mi South 4.6 mph - N/A   Overcast
8:53 PM 48.0 °F - 46.9 °F 96% 29.97 in 10.0 mi SSE 4.6 mph - N/A   Overcast
9:53 PM 48.0 °F - 46.0 °F 93% 29.97 in 10.0 mi South 3.5 mph - N/A   Overcast
10:53 PM 48.0 °F - 46.0 °F 93% 29.97 in 10.0 mi Calm Calm - N/A   Overcast
11:53 PM 48.0 °F - 46.0 °F 93% 29.97 in 10.0 mi Calm Calm - N/A   Overcast